Year,Month,Day,Hour,Minute,Value (Times are PST for windgust in km/hr)
2020,02,23,00,00,19.30
2020,02,23,00,01,20.90
2020,02,23,00,02,22.50
2020,02,23,00,03,17.70
2020,02,23,00,04,24.20
2020,02,23,00,05,24.20
2020,02,23,00,06,24.20
2020,02,23,00,07,16.10
2020,02,23,00,08,33.80
2020,02,23,00,09,20.90
2020,02,23,00,10,19.30
2020,02,23,00,11,24.20
2020,02,23,00,12,20.90
2020,02,23,00,13,30.60
2020,02,23,00,14,12.90
2020,02,23,00,15,20.90
2020,02,23,00,16,12.90
2020,02,23,00,17,24.20
2020,02,23,00,18,20.90
2020,02,23,00,19,19.30
2020,02,23,00,20,19.30
2020,02,23,00,21,19.30
2020,02,23,00,22,25.70
2020,02,23,00,23,24.20
2020,02,23,00,24,22.50
2020,02,23,00,25,14.50
2020,02,23,00,26,25.70
2020,02,23,00,27,27.40
2020,02,23,00,28,20.90
2020,02,23,00,29,11.30
2020,02,23,00,30,27.40
2020,02,23,00,31,51.50
2020,02,23,00,32,35.40
2020,02,23,00,33,33.80
2020,02,23,00,34,32.20
2020,02,23,00,35,27.40
2020,02,23,00,36,30.60
2020,02,23,00,37,25.70
2020,02,23,00,38,22.50
2020,02,23,00,39,24.20
2020,02,23,00,40,27.40
2020,02,23,00,41,32.20
2020,02,23,00,42,27.40
2020,02,23,00,43,16.10
2020,02,23,00,44,20.90
2020,02,23,00,45,20.90
2020,02,23,00,46,25.70
2020,02,23,00,47,33.80
2020,02,23,00,48,16.10
2020,02,23,00,49,24.20
2020,02,23,00,50,19.30
2020,02,23,00,51,22.50
2020,02,23,00,52,17.70
2020,02,23,00,53,30.60
2020,02,23,00,54,25.70
2020,02,23,00,55,27.40
2020,02,23,00,56,20.90
2020,02,23,00,57,19.30
2020,02,23,00,58,14.50
2020,02,23,00,59,20.90
2020,02,23,01,00,30.60
2020,02,23,01,01,19.30
2020,02,23,01,02,38.60
2020,02,23,01,03,29.00
2020,02,23,01,04,29.00
2020,02,23,01,05,32.20
2020,02,23,01,06,40.20
2020,02,23,01,07,32.20
2020,02,23,01,08,20.90
2020,02,23,01,09,27.40
2020,02,23,01,10,30.60
2020,02,23,01,11,41.80
2020,02,23,01,12,32.20
2020,02,23,01,13,29.00
2020,02,23,01,14,30.60
2020,02,23,01,15,27.40
2020,02,23,01,16,37.00
2020,02,23,01,17,27.40
2020,02,23,01,18,32.20
2020,02,23,01,19,40.20
2020,02,23,01,20,33.80
2020,02,23,01,21,29.00
2020,02,23,01,22,29.00
2020,02,23,01,23,33.80
2020,02,23,01,24,19.30
2020,02,23,01,25,22.50
2020,02,23,01,26,30.60
2020,02,23,01,27,27.40
2020,02,23,01,28,25.70
2020,02,23,01,29,16.10
2020,02,23,01,30,19.30
2020,02,23,01,31,27.40
2020,02,23,01,32,24.20
2020,02,23,01,33,17.70
2020,02,23,01,34,27.40
2020,02,23,01,35,25.70
2020,02,23,01,36,19.30
2020,02,23,01,37,22.50
2020,02,23,01,38,19.30
2020,02,23,01,39,19.30
2020,02,23,01,40,33.80
2020,02,23,01,41,35.40
2020,02,23,01,42,24.20
2020,02,23,01,43,25.70
2020,02,23,01,44,38.60
2020,02,23,01,45,29.00
2020,02,23,01,46,43.50
2020,02,23,01,47,37.00
2020,02,23,01,48,33.80
2020,02,23,01,49,35.40
2020,02,23,01,50,32.20
2020,02,23,01,51,45.10
2020,02,23,01,52,40.20
2020,02,23,01,53,48.30
2020,02,23,01,54,37.00
2020,02,23,01,55,32.20
2020,02,23,01,56,37.00
2020,02,23,01,57,37.00
2020,02,23,01,58,35.40
2020,02,23,01,59,30.60
2020,02,23,02,00,29.00
2020,02,23,02,01,46.70
2020,02,23,02,02,30.60
2020,02,23,02,03,29.00
2020,02,23,02,04,45.10
2020,02,23,02,05,46.70
2020,02,23,02,06,35.40
2020,02,23,02,07,30.60
2020,02,23,02,08,37.00
2020,02,23,02,09,35.40
2020,02,23,02,10,32.20
2020,02,23,02,11,35.40
2020,02,23,02,12,40.20
2020,02,23,02,13,53.10
2020,02,23,02,14,33.80
2020,02,23,02,15,37.00
2020,02,23,02,16,46.70
2020,02,23,02,17,38.60
2020,02,23,02,18,40.20
2020,02,23,02,19,45.10
2020,02,23,02,20,37.00
2020,02,23,02,21,49.90
2020,02,23,02,22,54.70
2020,02,23,02,23,32.20
2020,02,23,02,24,33.80
2020,02,23,02,25,41.80
2020,02,23,02,26,38.60
2020,02,23,02,27,27.40
2020,02,23,02,28,27.40
2020,02,23,02,29,45.10
2020,02,23,02,30,45.10
2020,02,23,02,31,30.60
2020,02,23,02,32,27.40
2020,02,23,02,33,43.50
2020,02,23,02,34,32.20
2020,02,23,02,35,49.90
2020,02,23,02,36,37.00
2020,02,23,02,37,38.60
2020,02,23,02,38,33.80
2020,02,23,02,39,38.60
2020,02,23,02,40,40.20
2020,02,23,02,41,38.60
2020,02,23,02,42,33.80
2020,02,23,02,43,35.40
2020,02,23,02,44,30.60
2020,02,23,02,45,29.00
2020,02,23,02,46,40.20
2020,02,23,02,47,40.20
2020,02,23,02,48,40.20
2020,02,23,02,49,32.20
2020,02,23,02,50,43.50
2020,02,23,02,51,43.50
2020,02,23,02,52,64.40
2020,02,23,02,53,64.40
2020,02,23,02,54,43.50
2020,02,23,02,55,40.20
2020,02,23,02,56,33.80
2020,02,23,02,57,33.80
2020,02,23,02,58,48.30
2020,02,23,02,59,32.20
2020,02,23,03,00,38.60
2020,02,23,03,01,32.20
2020,02,23,03,02,51.50
2020,02,23,03,03,40.20
2020,02,23,03,04,38.60
2020,02,23,03,05,56.30
2020,02,23,03,06,30.60
2020,02,23,03,07,43.50
2020,02,23,03,08,37.00
2020,02,23,03,09,38.60
2020,02,23,03,10,41.80
2020,02,23,03,11,38.60
2020,02,23,03,12,37.00
2020,02,23,03,13,24.20
2020,02,23,03,14,20.90
2020,02,23,03,15,24.20
2020,02,23,03,16,32.20
2020,02,23,03,17,33.80
2020,02,23,03,18,29.00
2020,02,23,03,19,19.30
2020,02,23,03,20,37.00
2020,02,23,03,21,25.70
2020,02,23,03,22,24.20
2020,02,23,03,23,25.70
2020,02,23,03,24,24.20
2020,02,23,03,25,27.40
2020,02,23,03,26,27.40
2020,02,23,03,27,30.60
2020,02,23,03,28,37.00
2020,02,23,03,29,37.00
2020,02,23,03,30,19.30
2020,02,23,03,31,20.90
2020,02,23,03,32,41.80
2020,02,23,03,33,43.50
2020,02,23,03,34,37.00
2020,02,23,03,35,38.60
2020,02,23,03,36,37.00
2020,02,23,03,37,24.20
2020,02,23,03,38,24.20
2020,02,23,03,39,32.20
2020,02,23,03,40,29.00
2020,02,23,03,41,24.20
2020,02,23,03,42,35.40
2020,02,23,03,43,25.70
2020,02,23,03,44,20.90
2020,02,23,03,45,20.90
2020,02,23,03,46,20.90
2020,02,23,03,47,25.70
2020,02,23,03,48,14.50
2020,02,23,03,49,30.60
2020,02,23,03,50,32.20
2020,02,23,03,51,25.70
2020,02,23,03,52,32.20
2020,02,23,03,53,22.50
2020,02,23,03,54,24.20
2020,02,23,03,55,17.70
2020,02,23,03,56,22.50
2020,02,23,03,57,17.70
2020,02,23,03,58,17.70
2020,02,23,03,59,24.20
2020,02,23,04,00,24.20
2020,02,23,04,01,22.50
2020,02,23,04,02,27.40
2020,02,23,04,03,20.90
2020,02,23,04,04,25.70
2020,02,23,04,05,22.50
2020,02,23,04,06,25.70
2020,02,23,04,07,25.70
2020,02,23,04,08,20.90
2020,02,23,04,09,37.00
2020,02,23,04,10,24.20
2020,02,23,04,11,41.80
2020,02,23,04,12,38.60
2020,02,23,04,13,35.40
2020,02,23,04,14,29.00
2020,02,23,04,15,27.40
2020,02,23,04,16,33.80
2020,02,23,04,17,22.50
2020,02,23,04,18,24.20
2020,02,23,04,19,22.50
2020,02,23,04,20,20.90
2020,02,23,04,21,32.20
2020,02,23,04,22,19.30
2020,02,23,04,23,16.10
2020,02,23,04,24,25.70
2020,02,23,04,25,27.40
2020,02,23,04,26,22.50
2020,02,23,04,27,14.50
2020,02,23,04,28,27.40
2020,02,23,04,29,25.70
2020,02,23,04,30,35.40
2020,02,23,04,31,22.50
2020,02,23,04,32,35.40
2020,02,23,04,33,16.10
2020,02,23,04,34,24.20
2020,02,23,04,35,20.90
2020,02,23,04,36,22.50
2020,02,23,04,37,19.30
2020,02,23,04,38,27.40
2020,02,23,04,39,20.90
2020,02,23,04,40,27.40
2020,02,23,04,41,16.10
2020,02,23,04,42,25.70
2020,02,23,04,43,32.20
2020,02,23,04,44,32.20
2020,02,23,04,45,25.70
2020,02,23,04,46,17.70
2020,02,23,04,47,20.90
2020,02,23,04,48,30.60
2020,02,23,04,49,25.70
2020,02,23,04,50,19.30
2020,02,23,04,51,27.40
2020,02,23,04,52,20.90
2020,02,23,04,53,19.30
2020,02,23,04,54,20.90
2020,02,23,04,55,30.60
2020,02,23,04,56,45.10
2020,02,23,04,57,37.00
2020,02,23,04,58,22.50
2020,02,23,04,59,24.20
2020,02,23,05,00,30.60
2020,02,23,05,01,29.00
2020,02,23,05,02,30.60
2020,02,23,05,03,29.00
2020,02,23,05,04,35.40
2020,02,23,05,05,20.90
2020,02,23,05,06,35.40
2020,02,23,05,07,25.70
2020,02,23,05,08,37.00
2020,02,23,05,09,22.50
2020,02,23,05,10,40.20
2020,02,23,05,11,35.40
2020,02,23,05,12,35.40
2020,02,23,05,13,24.20
2020,02,23,05,14,19.30
2020,02,23,05,15,30.60
2020,02,23,05,16,16.10
2020,02,23,05,17,22.50
2020,02,23,05,18,27.40
2020,02,23,05,19,37.00
2020,02,23,05,20,48.30
2020,02,23,05,21,27.40
2020,02,23,05,22,37.00
2020,02,23,05,23,32.20
2020,02,23,05,24,38.60
2020,02,23,05,25,33.80
2020,02,23,05,26,27.40
2020,02,23,05,27,22.50
2020,02,23,05,28,27.40
2020,02,23,05,29,19.30
2020,02,23,05,30,32.20
2020,02,23,05,31,20.90
2020,02,23,05,32,19.30
2020,02,23,05,33,14.50
2020,02,23,05,34,17.70
2020,02,23,05,35,24.20
2020,02,23,05,36,9.60
2020,02,23,05,37,24.20
2020,02,23,05,38,11.30
2020,02,23,05,39,17.70
2020,02,23,05,40,17.70
2020,02,23,05,41,14.50
2020,02,23,05,42,14.50
2020,02,23,05,43,30.60
2020,02,23,05,44,17.70
2020,02,23,05,45,16.10
2020,02,23,05,46,12.90
2020,02,23,05,47,22.50
2020,02,23,05,48,14.50
2020,02,23,05,49,12.90
2020,02,23,05,50,20.90
2020,02,23,05,51,9.60
2020,02,23,05,52,16.10
2020,02,23,05,53,17.70
2020,02,23,05,54,17.70
2020,02,23,05,55,20.90
2020,02,23,05,56,17.70
2020,02,23,05,57,16.10
2020,02,23,05,58,12.90
2020,02,23,05,59,19.30
2020,02,23,06,00,11.30
2020,02,23,06,01,9.60
2020,02,23,06,02,9.60
2020,02,23,06,03,16.10
2020,02,23,06,04,8.10
2020,02,23,06,05,4.80
2020,02,23,06,06,3.20
2020,02,23,06,07,4.80
2020,02,23,06,08,4.80
2020,02,23,06,09,6.40
2020,02,23,06,10,1.60
2020,02,23,06,11,3.20
2020,02,23,06,12,3.20
2020,02,23,06,13,3.20
2020,02,23,06,14,6.40
2020,02,23,06,15,3.20
2020,02,23,06,16,3.20
2020,02,23,06,17,1.60
2020,02,23,06,18,3.20
2020,02,23,06,19,3.20
2020,02,23,06,20,3.20
2020,02,23,06,21,4.80
2020,02,23,06,22,3.20
2020,02,23,06,23,4.80
2020,02,23,06,24,3.20
2020,02,23,06,25,1.60
2020,02,23,06,26,1.60
2020,02,23,06,27,1.60
2020,02,23,06,28,1.60
2020,02,23,06,29,3.20
2020,02,23,06,30,3.20
2020,02,23,06,31,3.20
2020,02,23,06,33,1.60
2020,02,23,06,34,1.60
2020,02,23,06,35,1.60
2020,02,23,06,36,3.20
2020,02,23,06,37,3.20
2020,02,23,06,38,6.40
2020,02,23,06,39,3.20
2020,02,23,06,40,4.80
2020,02,23,06,41,11.30
2020,02,23,06,42,6.40
2020,02,23,06,43,8.10
2020,02,23,06,44,4.80
2020,02,23,06,45,6.40
2020,02,23,06,46,6.40
2020,02,23,06,47,11.30
2020,02,23,06,48,14.50
2020,02,23,06,49,8.10
2020,02,23,06,50,11.30
2020,02,23,06,51,12.90
2020,02,23,06,52,16.10
2020,02,23,06,53,12.90
2020,02,23,06,54,9.60
2020,02,23,06,55,9.60
2020,02,23,06,56,6.40
2020,02,23,06,57,9.60
2020,02,23,06,58,11.30
2020,02,23,06,59,11.30
2020,02,23,07,00,9.60
2020,02,23,07,01,8.10
2020,02,23,07,02,9.60
2020,02,23,07,03,3.20
2020,02,23,07,04,6.40
2020,02,23,07,05,11.30
2020,02,23,07,06,8.10
2020,02,23,07,07,8.10
2020,02,23,07,08,8.10
2020,02,23,07,09,9.60
2020,02,23,07,10,8.10
2020,02,23,07,11,8.10
2020,02,23,07,12,8.10
2020,02,23,07,13,11.30
2020,02,23,07,14,6.40
2020,02,23,07,15,6.40
2020,02,23,07,16,8.10
2020,02,23,07,17,11.30
2020,02,23,07,18,11.30
2020,02,23,07,19,9.60
2020,02,23,07,20,11.30
2020,02,23,07,21,4.80
2020,02,23,07,22,3.20
2020,02,23,07,23,4.80
2020,02,23,07,24,4.80
2020,02,23,07,25,6.40
2020,02,23,07,26,4.80
2020,02,23,07,27,4.80
2020,02,23,07,28,3.20
2020,02,23,07,29,4.80
2020,02,23,07,30,1.60
2020,02,23,07,31,1.60
2020,02,23,07,32,1.60
2020,02,23,07,33,1.60
2020,02,23,07,34,3.20
2020,02,23,07,35,3.20
2020,02,23,07,36,4.80
2020,02,23,07,37,1.60
2020,02,23,07,38,3.20
2020,02,23,07,39,4.80
2020,02,23,07,40,3.20
2020,02,23,07,41,3.20
2020,02,23,07,42,3.20
2020,02,23,07,43,1.60
2020,02,23,07,44,1.60
2020,02,23,07,45,1.60
2020,02,23,07,46,1.60
2020,02,23,07,49,1.60
2020,02,23,07,50,1.60
2020,02,23,07,51,1.60
2020,02,23,07,52,1.60
2020,02,23,07,56,1.60
2020,02,23,07,58,1.60
2020,02,23,07,59,1.60
2020,02,23,08,01,1.60
2020,02,23,08,02,1.60
2020,02,23,08,03,3.20
2020,02,23,08,04,4.80
2020,02,23,08,05,3.20
2020,02,23,08,06,3.20
2020,02,23,08,07,3.20
2020,02,23,08,08,3.20
2020,02,23,08,09,3.20
2020,02,23,08,10,3.20
2020,02,23,08,11,1.60
2020,02,23,08,12,1.60
2020,02,23,08,13,1.60
2020,02,23,08,14,1.60
2020,02,23,08,15,1.60
2020,02,23,08,16,1.60
2020,02,23,08,18,1.60
2020,02,23,08,19,1.60
2020,02,23,08,24,1.60
2020,02,23,08,25,1.60
2020,02,23,08,26,1.60
2020,02,23,08,27,1.60
2020,02,23,08,41,3.20
2020,02,23,08,42,1.60
2020,02,23,08,44,1.60
2020,02,23,08,45,1.60
2020,02,23,08,46,3.20
2020,02,23,08,47,1.60
2020,02,23,08,48,1.60
2020,02,23,08,49,3.20
2020,02,23,08,50,1.60
2020,02,23,08,52,1.60
2020,02,23,08,53,1.60
2020,02,23,08,54,1.60
2020,02,23,08,55,1.60
2020,02,23,08,56,1.60
2020,02,23,08,57,3.20
2020,02,23,08,58,6.40
2020,02,23,08,59,8.10
2020,02,23,09,00,6.40
2020,02,23,09,01,3.20
2020,02,23,09,02,4.80
2020,02,23,09,03,1.60
2020,02,23,09,04,1.60
2020,02,23,09,05,8.10
2020,02,23,09,06,4.80
2020,02,23,09,07,3.20
2020,02,23,09,08,4.80
2020,02,23,09,09,6.40
2020,02,23,09,10,9.60
2020,02,23,09,11,9.60
2020,02,23,09,12,3.20
2020,02,23,09,13,3.20
2020,02,23,09,14,12.90
2020,02,23,09,15,11.30
2020,02,23,09,16,8.10
2020,02,23,09,17,8.10
2020,02,23,09,18,8.10
2020,02,23,09,19,8.10
2020,02,23,09,20,6.40
2020,02,23,09,21,6.40
2020,02,23,09,22,12.90
2020,02,23,09,23,12.90
2020,02,23,09,24,12.90
2020,02,23,09,25,14.50
2020,02,23,09,26,17.70
2020,02,23,09,27,14.50
2020,02,23,09,28,14.50
2020,02,23,09,29,12.90
2020,02,23,09,30,6.40
2020,02,23,09,31,6.40
2020,02,23,09,32,11.30
2020,02,23,09,33,9.60
2020,02,23,09,34,12.90
2020,02,23,09,35,8.10
2020,02,23,09,36,9.60
2020,02,23,09,37,17.70
2020,02,23,09,38,6.40
2020,02,23,09,39,11.30
2020,02,23,09,40,8.10
2020,02,23,09,41,6.40
2020,02,23,09,42,16.10
2020,02,23,09,43,16.10
2020,02,23,09,44,11.30
2020,02,23,09,45,14.50
2020,02,23,09,46,11.30
2020,02,23,09,47,12.90
2020,02,23,09,48,11.30
2020,02,23,09,49,9.60
2020,02,23,09,50,9.60
2020,02,23,09,51,11.30
2020,02,23,09,52,16.10
2020,02,23,09,53,22.50
2020,02,23,09,54,20.90
2020,02,23,09,55,14.50
2020,02,23,09,56,14.50
2020,02,23,09,57,16.10
2020,02,23,09,58,22.50
2020,02,23,09,59,12.90
2020,02,23,10,00,20.90
2020,02,23,10,01,17.70
2020,02,23,10,02,12.90
2020,02,23,10,03,11.30
2020,02,23,10,04,22.50
2020,02,23,10,05,17.70
2020,02,23,10,06,16.10
2020,02,23,10,07,25.70
2020,02,23,10,08,16.10
2020,02,23,10,09,14.50
2020,02,23,10,10,16.10
2020,02,23,10,11,22.50
2020,02,23,10,12,20.90
2020,02,23,10,13,30.60
2020,02,23,10,14,25.70
2020,02,23,10,15,25.70
2020,02,23,10,16,24.20
2020,02,23,10,17,24.20
2020,02,23,10,18,29.00
2020,02,23,10,19,33.80
2020,02,23,10,20,20.90
2020,02,23,10,21,20.90
2020,02,23,10,22,16.10
2020,02,23,10,23,17.70
2020,02,23,10,24,25.70
2020,02,23,10,25,19.30
2020,02,23,10,26,16.10
2020,02,23,10,27,14.50
2020,02,23,10,28,19.30
2020,02,23,10,29,12.90
2020,02,23,10,30,17.70
2020,02,23,10,31,22.50
2020,02,23,10,32,22.50
2020,02,23,10,33,17.70
2020,02,23,10,34,24.20
2020,02,23,10,35,11.30
2020,02,23,10,36,12.90
2020,02,23,10,37,16.10
2020,02,23,10,38,14.50
2020,02,23,10,39,19.30
2020,02,23,10,40,12.90
2020,02,23,10,41,11.30
2020,02,23,10,42,12.90
2020,02,23,10,43,12.90
2020,02,23,10,44,9.60
2020,02,23,10,45,22.50
2020,02,23,10,46,17.70
2020,02,23,10,47,19.30
2020,02,23,10,48,20.90
2020,02,23,10,49,14.50
2020,02,23,10,50,24.20
2020,02,23,10,51,24.20
2020,02,23,10,52,22.50
2020,02,23,10,53,24.20
2020,02,23,10,54,33.80
2020,02,23,10,55,22.50
2020,02,23,10,56,22.50
2020,02,23,10,57,29.00
2020,02,23,10,58,19.30
2020,02,23,10,59,19.30
2020,02,23,11,00,14.50
2020,02,23,11,01,19.30
2020,02,23,11,02,14.50
2020,02,23,11,03,17.70
2020,02,23,11,04,19.30
2020,02,23,11,05,20.90
2020,02,23,11,06,16.10
2020,02,23,11,07,19.30
2020,02,23,11,08,17.70
2020,02,23,11,09,27.40
2020,02,23,11,10,32.20
2020,02,23,11,11,32.20
2020,02,23,11,12,24.20
2020,02,23,11,13,33.80
2020,02,23,11,14,20.90
2020,02,23,11,15,27.40
2020,02,23,11,16,25.70
2020,02,23,11,17,24.20
2020,02,23,11,18,16.10
2020,02,23,11,19,32.20
2020,02,23,11,20,29.00
2020,02,23,11,21,22.50
2020,02,23,11,22,24.20
2020,02,23,11,23,24.20
2020,02,23,11,24,27.40
2020,02,23,11,25,25.70
2020,02,23,11,26,29.00
2020,02,23,11,27,38.60
2020,02,23,11,28,35.40
2020,02,23,11,29,40.20
2020,02,23,11,30,24.20
2020,02,23,11,31,20.90
2020,02,23,11,32,22.50
2020,02,23,11,33,19.30
2020,02,23,11,34,19.30
2020,02,23,11,35,29.00
2020,02,23,11,36,25.70
2020,02,23,11,37,35.40
2020,02,23,11,38,30.60
2020,02,23,11,39,29.00
2020,02,23,11,40,25.70
2020,02,23,11,41,25.70
2020,02,23,11,42,30.60
2020,02,23,11,43,33.80
2020,02,23,11,44,38.60
2020,02,23,11,45,25.70
2020,02,23,11,46,19.30
2020,02,23,11,47,33.80
2020,02,23,11,48,30.60
2020,02,23,11,49,17.70
2020,02,23,11,50,25.70
2020,02,23,11,51,29.00
2020,02,23,11,52,19.30
2020,02,23,11,53,25.70
2020,02,23,11,54,17.70
2020,02,23,11,55,17.70
2020,02,23,11,56,33.80
2020,02,23,11,57,14.50
2020,02,23,11,58,20.90
2020,02,23,11,59,16.10
2020,02,23,12,00,33.80
2020,02,23,12,01,29.00
2020,02,23,12,02,24.20
2020,02,23,12,03,29.00
2020,02,23,12,04,24.20
2020,02,23,12,05,20.90
2020,02,23,12,06,25.70
2020,02,23,12,07,27.40
2020,02,23,12,08,27.40
2020,02,23,12,09,35.40
2020,02,23,12,10,43.50
2020,02,23,12,11,25.70
2020,02,23,12,12,20.90
2020,02,23,12,13,46.70
2020,02,23,12,14,20.90
2020,02,23,12,15,32.20
2020,02,23,12,16,30.60
2020,02,23,12,17,35.40
2020,02,23,12,18,27.40
2020,02,23,12,19,32.20
2020,02,23,12,20,22.50
2020,02,23,12,21,32.20
2020,02,23,12,22,32.20
2020,02,23,12,23,22.50
2020,02,23,12,24,32.20
2020,02,23,12,25,22.50
2020,02,23,12,26,25.70
2020,02,23,12,27,25.70
2020,02,23,12,28,22.50
2020,02,23,12,29,27.40
2020,02,23,12,30,22.50
2020,02,23,12,31,22.50
2020,02,23,12,32,19.30
2020,02,23,12,33,24.20
2020,02,23,12,34,41.80
2020,02,23,12,35,35.40
2020,02,23,12,36,24.20
2020,02,23,12,37,24.20
2020,02,23,12,38,22.50
2020,02,23,12,39,17.70
2020,02,23,12,40,19.30
2020,02,23,12,41,25.70
2020,02,23,12,42,37.00
2020,02,23,12,43,32.20
2020,02,23,12,44,35.40
2020,02,23,12,45,19.30
2020,02,23,12,46,29.00
2020,02,23,12,47,22.50
2020,02,23,12,48,22.50
2020,02,23,12,49,17.70
2020,02,23,12,50,24.20
2020,02,23,12,51,25.70
2020,02,23,12,52,30.60
2020,02,23,12,53,37.00
2020,02,23,12,54,27.40
2020,02,23,12,55,29.00
2020,02,23,12,56,24.20
2020,02,23,12,57,17.70
2020,02,23,12,58,27.40
2020,02,23,12,59,19.30
2020,02,23,13,00,17.70
2020,02,23,13,01,25.70
2020,02,23,13,02,29.00
2020,02,23,13,03,30.60
2020,02,23,13,04,27.40
2020,02,23,13,05,27.40
2020,02,23,13,06,29.00
2020,02,23,13,07,17.70
2020,02,23,13,08,24.20
2020,02,23,13,09,22.50
2020,02,23,13,10,27.40
2020,02,23,13,11,20.90
2020,02,23,13,12,29.00
2020,02,23,13,13,24.20
2020,02,23,13,14,22.50
2020,02,23,13,15,30.60
2020,02,23,13,16,25.70
2020,02,23,13,17,17.70
2020,02,23,13,18,22.50
2020,02,23,13,19,25.70
2020,02,23,13,20,24.20
2020,02,23,13,21,25.70
2020,02,23,13,22,30.60
2020,02,23,13,23,24.20
2020,02,23,13,24,27.40
2020,02,23,13,25,17.70
2020,02,23,13,26,20.90
2020,02,23,13,27,24.20
2020,02,23,13,28,17.70
2020,02,23,13,29,19.30
2020,02,23,13,30,25.70
2020,02,23,13,31,22.50
2020,02,23,13,32,22.50
2020,02,23,13,33,17.70
2020,02,23,13,34,19.30
2020,02,23,13,35,19.30
2020,02,23,13,36,27.40
2020,02,23,13,37,25.70
2020,02,23,13,38,25.70
2020,02,23,13,39,14.50
2020,02,23,13,40,19.30
2020,02,23,13,41,22.50
2020,02,23,13,42,17.70
2020,02,23,13,43,19.30
2020,02,23,13,44,25.70
2020,02,23,13,45,24.20
2020,02,23,13,46,19.30
2020,02,23,13,47,37.00
2020,02,23,13,48,24.20
2020,02,23,13,49,22.50
2020,02,23,13,50,30.60
2020,02,23,13,51,29.00
2020,02,23,13,52,27.40
2020,02,23,13,53,20.90
2020,02,23,13,54,25.70
2020,02,23,13,55,17.70
2020,02,23,13,56,25.70
2020,02,23,13,57,24.20
2020,02,23,13,58,17.70
2020,02,23,13,59,17.70
2020,02,23,14,00,11.30
2020,02,23,14,01,9.60
2020,02,23,14,02,14.50
2020,02,23,14,03,20.90
2020,02,23,14,04,20.90
2020,02,23,14,05,16.10
2020,02,23,14,06,17.70
2020,02,23,14,07,16.10
2020,02,23,14,08,17.70
2020,02,23,14,09,14.50
2020,02,23,14,10,17.70
2020,02,23,14,11,12.90
2020,02,23,14,12,16.10
2020,02,23,14,13,17.70
2020,02,23,14,14,24.20
2020,02,23,14,15,14.50
2020,02,23,14,16,9.60
2020,02,23,14,17,8.10
2020,02,23,14,18,20.90
2020,02,23,14,19,17.70
2020,02,23,14,20,20.90
2020,02,23,14,21,8.10
2020,02,23,14,22,8.10
2020,02,23,14,23,14.50
2020,02,23,14,24,14.50
2020,02,23,14,25,12.90
2020,02,23,14,26,17.70
2020,02,23,14,27,14.50
2020,02,23,14,28,17.70
2020,02,23,14,29,17.70
2020,02,23,14,30,11.30
2020,02,23,14,31,11.30
2020,02,23,14,32,14.50
2020,02,23,14,33,12.90
2020,02,23,14,34,8.10
2020,02,23,14,35,9.60
2020,02,23,14,36,11.30
2020,02,23,14,37,12.90
2020,02,23,14,38,8.10
2020,02,23,14,39,12.90
2020,02,23,14,40,17.70
2020,02,23,14,41,11.30
2020,02,23,14,42,8.10
2020,02,23,14,43,8.10
2020,02,23,14,44,14.50
2020,02,23,14,45,14.50
2020,02,23,14,46,11.30
2020,02,23,14,47,8.10
2020,02,23,14,48,8.10
2020,02,23,14,49,14.50
2020,02,23,14,50,16.10
2020,02,23,14,51,11.30
2020,02,23,14,52,14.50
2020,02,23,14,53,12.90
2020,02,23,14,54,12.90
2020,02,23,14,55,11.30
2020,02,23,14,56,11.30
2020,02,23,14,57,12.90
2020,02,23,14,58,11.30
2020,02,23,14,59,8.10
2020,02,23,15,00,3.20
2020,02,23,15,01,3.20
2020,02,23,15,02,8.10
2020,02,23,15,03,8.10
2020,02,23,15,04,9.60
2020,02,23,15,05,3.20
2020,02,23,15,06,4.80
2020,02,23,15,07,11.30
2020,02,23,15,08,9.60
2020,02,23,15,09,4.80
2020,02,23,15,10,3.20
2020,02,23,15,11,4.80
2020,02,23,15,12,4.80
2020,02,23,15,13,4.80
2020,02,23,15,14,3.20
2020,02,23,15,15,1.60
2020,02,23,15,16,1.60
2020,02,23,15,17,1.60
2020,02,23,15,18,1.60
2020,02,23,15,19,4.80
2020,02,23,15,20,6.40
2020,02,23,15,21,8.10
2020,02,23,15,22,8.10
2020,02,23,15,23,8.10
2020,02,23,15,24,6.40
2020,02,23,15,25,11.30
2020,02,23,15,26,6.40
2020,02,23,15,27,3.20
2020,02,23,15,28,8.10
2020,02,23,15,29,4.80
2020,02,23,15,30,8.10
2020,02,23,15,31,6.40
2020,02,23,15,32,6.40
2020,02,23,15,33,4.80
2020,02,23,15,34,4.80
2020,02,23,15,35,6.40
2020,02,23,15,36,8.10
2020,02,23,15,37,6.40
2020,02,23,15,38,6.40
2020,02,23,15,39,12.90
2020,02,23,15,40,9.60
2020,02,23,15,41,11.30
2020,02,23,15,42,6.40
2020,02,23,15,43,11.30
2020,02,23,15,44,6.40
2020,02,23,15,45,8.10
2020,02,23,15,46,11.30
2020,02,23,15,47,6.40
2020,02,23,15,48,4.80
2020,02,23,15,49,9.60
2020,02,23,15,50,9.60
2020,02,23,15,51,8.10
2020,02,23,15,52,11.30
2020,02,23,15,53,11.30
2020,02,23,15,54,8.10
2020,02,23,15,55,8.10
2020,02,23,15,56,8.10
2020,02,23,15,57,8.10
2020,02,23,15,58,6.40
2020,02,23,15,59,8.10
2020,02,23,16,00,11.30
2020,02,23,16,01,11.30
2020,02,23,16,02,8.10
2020,02,23,16,03,11.30
2020,02,23,16,04,12.90
2020,02,23,16,05,9.60
2020,02,23,16,06,9.60
2020,02,23,16,07,6.40
2020,02,23,16,08,6.40
2020,02,23,16,09,6.40
2020,02,23,16,10,8.10
2020,02,23,16,11,9.60
2020,02,23,16,12,6.40
2020,02,23,16,13,9.60
2020,02,23,16,14,9.60
2020,02,23,16,15,8.10
2020,02,23,16,16,17.70
2020,02,23,16,17,19.30
2020,02,23,16,18,16.10
2020,02,23,16,19,8.10
2020,02,23,16,20,20.90
2020,02,23,16,21,12.90
2020,02,23,16,22,20.90
2020,02,23,16,23,24.20
2020,02,23,16,24,12.90
2020,02,23,16,25,16.10
2020,02,23,16,26,14.50
2020,02,23,16,27,16.10
2020,02,23,16,28,9.60
2020,02,23,16,29,16.10
2020,02,23,16,30,17.70
2020,02,23,16,31,17.70
2020,02,23,16,32,12.90
2020,02,23,16,33,16.10
2020,02,23,16,34,14.50
2020,02,23,16,35,12.90
2020,02,23,16,36,11.30
2020,02,23,16,37,19.30
2020,02,23,16,38,16.10
2020,02,23,16,39,9.60
2020,02,23,16,40,8.10
2020,02,23,16,41,11.30
2020,02,23,16,42,12.90
2020,02,23,16,43,12.90
2020,02,23,16,44,12.90
2020,02,23,16,45,16.10
2020,02,23,16,46,8.10
2020,02,23,16,47,16.10
2020,02,23,16,48,6.40
2020,02,23,16,49,8.10
2020,02,23,16,50,6.40
2020,02,23,16,51,9.60
2020,02,23,16,52,17.70
2020,02,23,16,53,16.10
2020,02,23,16,54,17.70
2020,02,23,16,55,11.30
2020,02,23,16,56,14.50
2020,02,23,16,57,6.40
2020,02,23,16,58,3.20
2020,02,23,16,59,8.10
2020,02,23,17,00,8.10
2020,02,23,17,01,9.60
2020,02,23,17,02,9.60
2020,02,23,17,03,8.10
2020,02,23,17,04,14.50
2020,02,23,17,05,8.10
2020,02,23,17,06,8.10
2020,02,23,17,07,8.10
2020,02,23,17,08,6.40
2020,02,23,17,09,4.80
2020,02,23,17,10,4.80
2020,02,23,17,11,6.40
2020,02,23,17,12,3.20
2020,02,23,17,13,9.60
2020,02,23,17,14,8.10
2020,02,23,17,15,6.40
2020,02,23,17,16,4.80
2020,02,23,17,17,6.40
2020,02,23,17,18,6.40
2020,02,23,17,19,4.80
2020,02,23,17,20,6.40
2020,02,23,17,21,4.80
2020,02,23,17,22,6.40
2020,02,23,17,23,12.90
2020,02,23,17,24,11.30
2020,02,23,17,25,12.90
2020,02,23,17,26,11.30
2020,02,23,17,27,8.10
2020,02,23,17,28,8.10
2020,02,23,17,29,12.90
2020,02,23,17,30,6.40
2020,02,23,17,31,9.60
2020,02,23,17,32,6.40
2020,02,23,17,33,11.30
2020,02,23,17,34,8.10
2020,02,23,17,35,11.30
2020,02,23,17,36,8.10
2020,02,23,17,37,9.60
2020,02,23,17,38,9.60
2020,02,23,17,39,9.60
2020,02,23,17,40,9.60
2020,02,23,17,41,16.10
2020,02,23,17,42,9.60
2020,02,23,17,43,9.60
2020,02,23,17,44,12.90
2020,02,23,17,45,8.10
2020,02,23,17,46,11.30
2020,02,23,17,47,12.90
2020,02,23,17,48,9.60
2020,02,23,17,49,8.10
2020,02,23,17,50,6.40
2020,02,23,17,51,11.30
2020,02,23,17,52,8.10
2020,02,23,17,53,6.40
2020,02,23,17,54,11.30
2020,02,23,17,55,17.70
2020,02,23,17,56,19.30
2020,02,23,17,57,14.50
2020,02,23,17,58,11.30
2020,02,23,17,59,11.30
2020,02,23,18,00,6.40